Location: Home
(42.5358°N, 72.7383°W)
Time: 23:47:30
(UTC-05:00)

Vanguard 1 - Pass Details

Date: 07 December 2021
Orbit: 652 x 3830 km, 34.2° (Epoch: 21 January)

Event Time Altitude Azimuth Distance (km) Brightness Sun altitude
Rises 20:31:23 0° 204° (SSW) 6,032 14.2 -45.8°
Reaches altitude 10° 20:35:27 10° 195° (SSW) 5,429 13.8 -46.6°
Enters shadow 20:41:11 24° 177° (S) 4,860 13.3 -47.6°
Maximum altitude 20:50:27 34° 137° (SE) 4,781 - -49.3°
Drops below altitude 10° 21:09:31 10° 83° (E) 6,922 - -52.6°
Sets 21:15:32 0° 76° (ENE) 7,836 - -53.6°
